When you browse on this site, cookies collect data to enhance your experience and personalize the content and advertising you see.
Visit our Privacy Policy to learn more. By continuing to use the site, you agree to this use of cookies and data.
  • In United Kingdom
  • List of Countries
  • For 7 days
  • Water Temperature
  • Satellite Maps
  • Weather Map
  • Weather Widgets
  • user-avatar
    Login

    Hourly Weather Newcastle

    Today, 25 April, Thursday

    Time Temperature Precipitation Wind Pressure Humidity
    00:00 +6°C° 0 mm 4 mps 734 mmHg 94%
    01:00 +5°C° 0 mm 3 mps 733 mmHg 94%
    02:00 +5°C° 0 mm 3 mps 733 mmHg 94%
    03:00 +4°C° 0 mm 3 mps 733 mmHg 94%
    04:00 +5°C° 0.2 mm 4 mps 733 mmHg 94%
    05:00 +6°C° 0.2 mm 5 mps 733 mmHg 93%
    06:00 +6°C° 0 mm 5 mps 733 mmHg 93%
    07:00 +7°C° 0.1 mm 5 mps 733 mmHg 90%
    08:00 +8°C° 0.1 mm 6 mps 733 mmHg 88%
    09:00 +9°C° 0.1 mm 6 mps 733 mmHg 85%
    10:00 +10°C° 0.4 mm 6 mps 733 mmHg 82%
    11:00 +11°C° 0.4 mm 7 mps 734 mmHg 79%
    12:00 +11°C° 0.4 mm 7 mps 734 mmHg 75%
    13:00 +11°C° 0.6 mm 7 mps 734 mmHg 75%
    14:00 +11°C° 0.6 mm 7 mps 734 mmHg 74%
    15:00 +11°C° 0.6 mm 7 mps 735 mmHg 74%
    16:00 +11°C° 0.3 mm 6 mps 735 mmHg 76%
    17:00 +10°C° 0.3 mm 5 mps 735 mmHg 79%
    18:00 +10°C° 0.3 mm 4 mps 736 mmHg 82%
    19:00 +8°C° 0 mm 4 mps 736 mmHg 85%
    20:00 +7°C° 0 mm 4 mps 737 mmHg 87%
    21:00 +6°C° 0 mm 4 mps 737 mmHg 89%
    22:00 +6°C° 0 mm 5 mps 737 mmHg 90%
    23:00 +6°C° 0 mm 5 mps 738 mmHg 91%

    Tomorrow, 26 April, Friday

    Time Temperature Precipitation Wind Pressure Humidity
    00:00 +5°C° 0 mm 5 mps 738 mmHg 92%
    01:00 +5°C° 0.1 mm 5 mps 738 mmHg 92%
    02:00 +5°C° 0.1 mm 5 mps 739 mmHg 93%
    03:00 +5°C° 0.1 mm 4 mps 739 mmHg 93%
    04:00 +5°C° 0 mm 5 mps 739 mmHg 93%
    05:00 +5°C° 0 mm 5 mps 739 mmHg 93%
    06:00 +5°C° 0 mm 5 mps 739 mmHg 93%
    07:00 +5°C° 0.1 mm 6 mps 739 mmHg 90%
    08:00 +6°C° 0.1 mm 7 mps 739 mmHg 87%
    09:00 +7°C° 0.1 mm 8 mps 740 mmHg 84%
    10:00 +8°C° 1.1 mm 7 mps 740 mmHg 86%
    11:00 +8°C° 1.1 mm 7 mps 740 mmHg 89%
    12:00 +8°C° 1.1 mm 6 mps 740 mmHg 91%
    13:00 +8°C° 0.2 mm 7 mps 740 mmHg 87%
    14:00 +9°C° 0.2 mm 7 mps 741 mmHg 84%
    15:00 +9°C° 0.2 mm 7 mps 741 mmHg 81%
    16:00 +9°C° 0 mm 7 mps 741 mmHg 80%
    17:00 +8°C° 0 mm 6 mps 741 mmHg 79%
    18:00 +7°C° 0 mm 5 mps 741 mmHg 78%
    19:00 +7°C° 0.1 mm 6 mps 740 mmHg 81%
    20:00 +6°C° 0.1 mm 7 mps 739 mmHg 83%
    21:00 +5°C° 0.1 mm 8 mps 739 mmHg 86%
    22:00 +5°C° 0.1 mm 8 mps 738 mmHg 85%
    23:00 +4°C° 0.1 mm 8 mps 736 mmHg 85%

    Day after tomorrow, 27 April, Saturday

    Time Temperature Precipitation Wind Pressure Humidity
    00:00 +4°C° 0.1 mm 8 mps 735 mmHg 84%
    01:00 +4°C° 0.3 mm 8 mps 735 mmHg 86%
    02:00 +4°C° 0.3 mm 8 mps 734 mmHg 89%
    03:00 +4°C° 0.3 mm 8 mps 733 mmHg 91%
    04:00 +3°C° 0.7 mm 9 mps 734 mmHg 91%
    05:00 +5°C° 0.7 mm 9 mps 734 mmHg 91%
    06:00 +5°C° 0.7 mm 9 mps 734 mmHg 91%
    07:00 +5°C° 0.3 mm 9 mps 735 mmHg 90%
    08:00 +5°C° 0.3 mm 9 mps 736 mmHg 89%
    09:00 +6°C° 0.3 mm 9 mps 737 mmHg 88%
    10:00 +6°C° 0.5 mm 10 mps 738 mmHg 88%
    11:00 +6°C° 0.5 mm 10 mps 739 mmHg 87%
    12:00 +6°C° 0.5 mm 10 mps 740 mmHg 87%
    13:00 +6°C° 0.2 mm 11 mps 741 mmHg 86%
    14:00 +6°C° 0.2 mm 11 mps 741 mmHg 86%
    15:00 +6°C° 0.2 mm 11 mps 742 mmHg 85%
    16:00 +4°C° 0.5 mm 11 mps 743 mmHg 87%
    17:00 +5°C° 0.5 mm 10 mps 744 mmHg 88%
    18:00 +3°C° 0.5 mm 9 mps 745 mmHg 90%
    19:00 +3°C° 1.3 mm 9 mps 746 mmHg 90%
    20:00 +3°C° 1.3 mm 9 mps 747 mmHg 90%
    21:00 +3°C° 1.3 mm 9 mps 748 mmHg 90%
    22:00 +3°C° 0.5 mm 9 mps 748 mmHg 89%
    23:00 +4°C° 0.5 mm 8 mps 749 mmHg 88%

    28 April, Sunday

    Time Temperature Precipitation Wind Pressure Humidity
    00:00 +4°C° 0.5 mm 8 mps 749 mmHg 88%
    01:00 +4°C° 0 mm 8 mps 749 mmHg 87%
    02:00 +4°C° 0 mm 7 mps 750 mmHg 86%
    03:00 +4°C° 0 mm 7 mps 750 mmHg 86%
    04:00 +4°C° 0 mm 6 mps 751 mmHg 86%
    05:00 +4°C° 0 mm 6 mps 751 mmHg 85%
    06:00 +5°C° 0 mm 5 mps 752 mmHg 85%
    07:00 +5°C° 0 mm 6 mps 752 mmHg 83%
    08:00 +7°C° 0 mm 6 mps 752 mmHg 80%
    09:00 +8°C° 0 mm 6 mps 753 mmHg 78%
    10:00 +9°C° 0 mm 5 mps 753 mmHg 77%
    11:00 +10°C° 0 mm 5 mps 753 mmHg 75%
    12:00 +10°C° 0 mm 5 mps 753 mmHg 74%
    13:00 +12°C° 0.1 mm 5 mps 753 mmHg 74%
    14:00 +12°C° 0.1 mm 4 mps 753 mmHg 75%
    15:00 +12°C° 0.1 mm 4 mps 753 mmHg 75%
    16:00 +11°C° 0.1 mm 4 mps 753 mmHg 77%
    17:00 +11°C° 0.1 mm 4 mps 753 mmHg 79%
    18:00 +10°C° 0.1 mm 3 mps 753 mmHg 81%
    19:00 +10°C° 0 mm 3 mps 754 mmHg 82%
    20:00 +9°C° 0 mm 2 mps 754 mmHg 83%
    21:00 +8°C° 0 mm 2 mps 755 mmHg 84%
    22:00 +8°C° 0 mm 1 mps 755 mmHg 87%
    23:00 +7°C° 0 mm 1 mps 755 mmHg 90%

    29 April, Monday

    Time Temperature Precipitation Wind Pressure Humidity
    00:00 +7°C° 0 mm 1 mps 755 mmHg 92%
    01:00 +6°C° 0 mm 1 mps 755 mmHg 93%
    02:00 +6°C° 0 mm 1 mps 755 mmHg 93%
    03:00 +5°C° 0 mm 1 mps 755 mmHg 94%
    04:00 +6°C° 0 mm 1 mps 755 mmHg 94%
    05:00 +5°C° 0 mm 2 mps 755 mmHg 93%
    06:00 +5°C° 0 mm 2 mps 755 mmHg 93%
    07:00 +7°C° 0 mm 2 mps 756 mmHg 87%
    08:00 +9°C° 0 mm 2 mps 756 mmHg 81%
    09:00 +11°C° 0 mm 3 mps 756 mmHg 75%
    10:00 +12°C° 0 mm 3 mps 756 mmHg 70%
    11:00 +13°C° 0 mm 3 mps 756 mmHg 66%
    12:00 +15°C° 0 mm 2 mps 756 mmHg 61%
    13:00 +15°C° 0 mm 2 mps 756 mmHg 63%
    14:00 +15°C° 0 mm 2 mps 756 mmHg 65%
    15:00 +15°C° 0 mm 2 mps 755 mmHg 67%
    16:00 +15°C° 0 mm 2 mps 755 mmHg 70%
    17:00 +14°C° 0 mm 2 mps 755 mmHg 72%
    18:00 +14°C° 0 mm 1 mps 755 mmHg 75%
    19:00 +13°C° 0 mm 2 mps 756 mmHg 79%
    20:00 +10°C° 0 mm 2 mps 756 mmHg 83%
    21:00 +8°C° 0 mm 3 mps 756 mmHg 87%
    22:00 +7°C° 0 mm 2 mps 756 mmHg 88%
    23:00 +7°C° 0 mm 2 mps 756 mmHg 89%

    30 April, Tuesday

    Time Temperature Precipitation Wind Pressure Humidity
    00:00 +6°C° 0 mm 2 mps 756 mmHg 91%
    01:00 +5°C° 0 mm 2 mps 756 mmHg 91%
    02:00 +5°C° 0 mm 2 mps 756 mmHg 90%
    03:00 +6°C° 0 mm 1 mps 755 mmHg 90%
    04:00 +6°C° 0 mm 1 mps 755 mmHg 90%
    05:00 +7°C° 0 mm 1 mps 755 mmHg 89%
    06:00 +7°C° 0 mm 1 mps 755 mmHg 88%
    07:00 +8°C° 0 mm 2 mps 755 mmHg 86%
    08:00 +9°C° 0 mm 3 mps 755 mmHg 83%
    09:00 +10°C° 0 mm 4 mps 755 mmHg 81%
    10:00 +11°C° 0 mm 4 mps 755 mmHg 78%
    11:00 +12°C° 0 mm 3 mps 755 mmHg 75%
    12:00 +13°C° 0 mm 3 mps 755 mmHg 73%
    13:00 +14°C° 0.1 mm 3 mps 755 mmHg 72%
    14:00 +14°C° 0.1 mm 3 mps 754 mmHg 72%
    15:00 +14°C° 0.1 mm 3 mps 754 mmHg 72%
    16:00 +14°C° 0.1 mm 3 mps 754 mmHg 74%
    17:00 +14°C° 0.1 mm 3 mps 754 mmHg 77%
    18:00 +13°C° 0.1 mm 3 mps 754 mmHg 79%
    19:00 +11°C° 0 mm 3 mps 754 mmHg 82%
    20:00 +9°C° 0 mm 3 mps 754 mmHg 85%
    21:00 +7°C° 0 mm 3 mps 755 mmHg 88%
    22:00 +5°C° 0 mm 3 mps 755 mmHg 88%
    23:00 +4°C° 0 mm 3 mps 755 mmHg 88%
    Show more